Location: Pian di Sc�
(43.6333°N, 11.5500°E)
Time: 18:14:00
(UTC+00:00)

ERS-2 - Pass Details

Date: 07 August 2020
Orbit: 494 x 498 km, 98.6° (Epoch: 18 September)

Event Time Altitude Azimuth Distance (km) Brightness Sun altitude
Rises 03:29:19 0° 187° (S) 2,563 5.4 -7.3°
Reaches altitude 10° 03:31:32 10° 198° (SSW) 1,687 4.4 -7.0°
Maximum altitude 03:34:47 31° 262° (W) 897 2.9 -6.5°
Drops below altitude 10° 03:38:04 10° 326° (NW) 1,703 4.8 -6.0°
Sets 03:40:20 0° 337° (NNW) 2,592 5.8 -5.6°
